{"data":{"norad_id":69133,"intl_designator":"2026-110K","name":"STARLINK-37633","alt_names":[],"object_type":"PAYLOAD","status":"ACTIVE","operator":null,"country":"US","launch_date":"2026-05-20","launch_site_code":"AFWTR","launch_vehicle":null,"mission":null,"orbit_class":"UNKNOWN","rcs_meters":null,"size_class":null,"mass_kg":null,"dimensions":null,"purposes":["comms"],"wikipedia_slug":null,"has_3d_model":false,"image_url":null,"decayed_at":null,"tle_current":{"epoch":"2026-09-18T19:02:13.864128Z","epoch_age_seconds":170648,"freshness":"FRESH","line1":"1 69133U 26110K   26261.79321602  .00017888  00000+0  55481-3 0  9996","line2":"2 69133  97.2820  96.8609 0002704  98.0946 262.0603 15.33458161 19959","mean_motion":15.33458161,"eccentricity":0.0002704,"inclination_deg":97.282,"raan_deg":96.8609,"arg_perigee_deg":98.0946,"mean_anomaly_deg":262.0603,"bstar":0.00055481,"rev_number":1995,"period_min":93.905398700995,"perigee_km":463.65349635078,"apogee_km":467.35453741271,"semimajor_km":6843.6410168817,"source":"CELESTRAK","updated_at":"2026-09-20T09:00:44.085994Z"}}}